Ana Sayfa
METAR-TAF:

METAR-TAF

Havaalanları :

Kamışlı Havaalanı

Kamışlı, Suriye

Enlem: 37-03N, Boylam: 041-13E, yükseklik: 455 m

Güncel hava durumu gözlemi

Rapor saat 11:00 UTC de 28 dakika önce yapıldı.
Rüzgar kuzey/kuzeydoğudan 9 kt
Sıcaklık 14°C
Nem 51%
Basınç 1020 hPa
Görüş mesafesi 10 km veya daha fazla
2600 ft yükseklikte az bulutlu

METAR: OSKL 201100Z 03009KT 9999 FEW026 14/04 Q1020

Saat: 13:28 (11:28 UTC)


TAF: eksik

4.000'den fazla havaalanı için hava durumu gözlemleri ve tahminleri (METAR ve TAF raporları).

Kullanılabilir istasyonlar harita üzerinde sarı ve kırmızı noktalarla gösterilir.

İstasyonun adını görmek için fareyi noktanın üzerinde gezdirin.

Sonrasında hava gözlem ve tahminlerini görmek için tıklayın.

Haritayı değiştirmek için: yaklaştırmak için siyah artı işaretli yeşil düğmeye ve uzaklaştırmak için de eksi işaretli düğmeye hızla tıklayın; bitişik haritalar için yeşil okları kullanın.


METAR-TAF: